Location: Unspecified
(0.0000°N, 0.0000°E)
Time: 18:14:20
(UTC+00:00)

Vanguard 1 - Pass Details

Date: 25 April 2026
Orbit: 654 x 3817 km, 34.2° (Epoch: 18 May)

Event Time Altitude Azimuth Distance (km) Brightness Sun altitude
Rises 18:04:53 0° 243° (WSW) 4,551 14.4 -1.7°
Reaches altitude 10° 18:07:22 10° 246° (WSW) 3,868 14.0 -2.3°
Maximum altitude 18:18:08 66° 326° (NNW) 2,606 12.4 -4.9°
Drops below altitude 10° 18:37:49 10° 46° (NE) 6,577 14.0 -9.7°
Sets 18:43:40 0° 49° (NE) 7,827 14.3 -11.1°
